Vertical_Velocity
1 2 1 1 -0 2 4 -1 1 -1 -2 -0 2 2 2 2 -3 -3 -2 -2 -3 -1 -3 -0 -1 -3 0 -2 -2 -0 -1 -4 -4 6 -0 -2 0 -4 1 1 -0 0 -0
-1 -1 -2 -3 -1 3 0 1 9 4 -4 2 2 2 -1 -4 -3 -2 -1 -1 2 -0 -2 -3 2 -0 -1 -4 -6 -6 -5 -3 -4 3 2 0 0 -3 -1 2 2 0 1
3 3 2 -2 0 -6 2 1 3 3 2 2 -0 -1 -1 -1 -1 -1 1 -1 -2 1 1 -1 0 -4 -3 -6 -5 -1 -4 -3 -4 -1 -1 -2 1 -2 1 -2 -1 -0 -2
5 5 0 -3 -1 -2 0 3 2 -1 -0 -1 -1 -1 -1 -1 -2 1 -0 1 1 0 0 -3 -2 -2 -3 -4 -2 -1 -4 -3 -2 -1 2 -1 -3 0 -0 -0 6 -6 1
-0 -0 7 2 -3 -4 -1 -1 -1 -0 -2 -0 -1 -1 1 2 -0 2 0 0 1 1 -1 -1 2 -1 -1 -1 -2 -3 -3 -1 -1 -1 -0 -0 -0 -1 -1 0 -0 3 -1
1 -1 -2 -3 1 0 0 -2 -1 0 0 1 1 2 2 -1 -4 -2 -2 2 1 1 2 3 1 -3 -3 -3 -3 -3 -2 -2 0 -1 -0 -2 1 -2 1 -1 -2 2 8
-3 1 0 1 -1 1 1 2 -0 -0 -0 -0 -0 -1 0 -1 -3 -0 -3 2 2 2 -1 -1 0 -2 -2 -3 -0 -2 -1 -1 -1 -2 0 -4 3 -2 1 2 -2 0 -5
2 1 -0 2 1 1 -0 -0 -0 -0 -1 -1 -2 -2 1 1 -2 -1 -3 -1 1 3 -1 -2 -1 0 -2 -2 1 -0 0 1 -2 0 1 0 0 0 -0 2 -1 1 -1
-1 -0 0 -0 -1 -0 0 0 -1 1 1 1 1 2 2 4 -2 1 -2 -1 4 4 1 1 -0 -1 -1 0 -0 -3 2 -1 -0 -1 -0 -1 0 -0 -1 1 -2 -2 4
-0 -1 -0 -0 -1 0 1 1 2 0 1 0 2 -3 1 2 2 4 2 3 5 0 1 0 0 -1 0 1 1 -1 3 -4 1 -1 -0 -1 0 0 -1 -0 -1 2 -1
-1 0 -0 1 1 0 3 -2 1 1 1 0 -4 3 0 -1 3 0 2 -2 -3 -0 4 3 3 -5 -0 3 -1 3 -0 1 -0 1 -0 -1 -1 -1 -1 -1 -3 -1 -1
-1 -1 -1 1 -1 -2 1 0 1 -1 -1 2 -4 2 7 3 0 -1 -3 -2 -1 -2 3 4 3 -0 -3 -0 0 2 0 1 1 1 0 0 1 -0 -2 1 -2 0 -3
-1 0 1 0 -0 -2 1 2 2 -1 -6 0 -4 -3 -4 3 11 9 -4 -3 2 -2 1 2 5 3 -3 -2 -1 -1 -1 2 1 1 0 -0 -0 -0 -1 3 -1 1 -2
-1 -1 -1 0 2 -2 -2 -6 -5 -4 -5 -4 -4 -5 -6 3 9 9 10 2 3 1 -0 3 6 4 0 -0 -1 -1 -2 0 1 1 1 1 1 0 -1 3 2 0 -0
0 0 -0 -1 -2 2 -0 -2 2 6 -5 -7 -1 -8 -11 -8 3 -2 -1 6 5 1 -6 -0 2 2 -1 -1 -0 1 1 -0 1 -1 1 2 1 1 -1 1 0 0 1
-1 -0 -1 0 1 -1 -1 10 7 -0 2 2 -3 -12 0 3 -4 2 2 1 2 1 -2 7 -0 0 1 -2 0 1 1 -0 0 1 0 -1 2 0 -0 -0 0 0 1
1 1 -0 -1 -1 0 0 -5 -6 30 1 2 -1 0 -0 -11 1 1 -1 0 2 2 3 3 4 0 4 -2 -1 1 2 1 1 2 1 -0 1 -0 1 -0 0 -0 -1
-3 -1 -1 -0 0 -1 -3 -4 -7 -14 -16 2 17 -2 2 -2 2 -0 -1 -2 -0 1 2 1 0 2 2 1 1 -0 1 1 1 1 2 0 1 0 -0 -0 1 0 -0
-1 -0 -2 -2 -2 -3 -2 -2 -4 -5 -6 -8 -2 7 -1 -1 -1 1 -1 1 1 1 -0 1 -0 0 1 0 1 1 -0 1 1 1 1 1 1 1 -0 -0 -0 1 -0
-2 -1 -1 -0 -1 -2 -2 -3 -3 -3 -1 -1 -5 -5 -3 -2 -0 2 1 -1 0 1 1 1 0 -0 0 -0 1 1 0 0 1 2 1 2 1 1 -0 -0 -0 -1 0
1 -0 0 -0 -2 -2 -2 -3 -3 -2 -3 -2 -3 -5 -6 -5 -2 -1 0 1 -0 0 2 1 0 -1 0 1 -0 0 0 -0 1 1 1 -1 -1 0 1 -1 -0 0 -0
-1 -1 -0 -0 -1 -1 -2 -2 -2 -2 -4 -4 -1 -1 -3 -3 -4 -2 -1 -0 0 -1 1 3 4 1 0 1 0 -0 0 0 1 2 2 0 1 1 1 -0 -0 0 0
0 -0 -2 -2 -2 -2 -3 -4 -4 -4 -3 -4 -3 -1 -1 -0 1 -1 -2 -0 0 2 2 3 -0 4 2 1 0 1 1 -0 2 1 -0 1 2 2 1 -0 0 1 0
-0 -0 -1 -1 -1 -2 -3 -3 -3 -3 -4 -2 -1 -2 -2 -2 -2 -1 -0 1 0 1 2 3 3 1 2 3 2 1 1 2 -1 3 -0 1 1 2 1 0 -1 0 -0
-1 -2 -2 -2 -2 -1 -1 -2 -2 -3 -4 -3 -1 -1 -2 -2 -3 -4 -4 -3 -2 -1 -0 1 2 2 2 3 1 2 3 1 1 3 -2 2 2 2 2 1 0 -0 0
-1 0 -0 -1 -2 -2 -2 -2 -3 -3 -2 -1 -1 -1 -2 -0 -2 -3 -2 -3 -3 -3 -1 -0 0 1 2 2 2 2 1 2 -0 3 0 2 2 2 1 1 1 -0 1
Height
5730 5728 5726 5723 5718 5714 5710 5705 5700 5694 5689 5683 5677 5669 5661 5654 5645 5637 5628 5619 5610 5601 5592 5582 5571 5562 5552 5541 5530 5520 5507 5493 5483 5474 5463 5455 5448 5441 5436 5430 5427 5424 5422
5722 5719 5715 5711 5708 5705 5702 5698 5690 5684 5677 5669 5662 5655 5648 5640 5631 5622 5614 5605 5596 5585 5575 5566 5555 5544 5532 5521 5511 5499 5488 5476 5465 5456 5448 5440 5433 5426 5423 5419 5415 5412 5410
5715 5712 5709 5705 5700 5695 5691 5686 5683 5675 5666 5658 5649 5641 5633 5625 5617 5608 5599 5589 5579 5569 5559 5549 5538 5527 5516 5505 5493 5482 5471 5460 5449 5441 5434 5427 5421 5415 5412 5408 5406 5402 5397
5707 5704 5701 5696 5691 5685 5680 5675 5669 5661 5653 5644 5636 5628 5620 5612 5602 5593 5583 5573 5563 5553 5542 5532 5521 5511 5501 5489 5479 5467 5456 5445 5435 5428 5422 5416 5410 5405 5402 5400 5397 5391 5386
5699 5696 5694 5687 5679 5674 5669 5663 5654 5646 5639 5632 5624 5615 5606 5596 5587 5577 5567 5557 5547 5537 5525 5514 5505 5495 5485 5475 5465 5453 5442 5432 5423 5416 5410 5405 5400 5396 5393 5390 5387 5383 5378
5690 5686 5683 5675 5669 5663 5656 5648 5641 5634 5627 5619 5610 5600 5589 5579 5570 5560 5551 5541 5531 5519 5510 5499 5489 5479 5469 5459 5449 5439 5428 5419 5412 5405 5400 5395 5391 5387 5385 5381 5377 5373 5370
5679 5675 5669 5663 5656 5650 5643 5636 5628 5620 5612 5603 5593 5584 5574 5563 5553 5544 5534 5524 5514 5503 5493 5484 5475 5464 5455 5445 5435 5425 5414 5407 5400 5395 5390 5385 5382 5379 5377 5374 5370 5365 5358
5667 5662 5656 5650 5643 5637 5629 5622 5614 5605 5596 5587 5577 5568 5559 5548 5538 5528 5517 5507 5497 5486 5476 5467 5459 5449 5439 5431 5421 5411 5402 5395 5389 5385 5381 5377 5373 5371 5368 5366 5362 5358 5351
5654 5648 5643 5637 5630 5623 5615 5607 5599 5590 5581 5572 5563 5553 5544 5534 5521 5510 5499 5490 5480 5471 5459 5449 5440 5432 5423 5413 5406 5396 5390 5384 5379 5374 5371 5367 5364 5362 5359 5357 5353 5350 5345
5641 5636 5629 5622 5615 5607 5600 5592 5584 5576 5567 5557 5548 5538 5528 5519 5505 5493 5480 5469 5462 5454 5445 5433 5422 5415 5406 5396 5389 5382 5377 5372 5368 5364 5361 5358 5355 5353 5351 5348 5345 5342 5337
5627 5621 5614 5608 5600 5593 5585 5577 5568 5559 5551 5543 5534 5524 5512 5498 5486 5473 5461 5450 5441 5436 5428 5418 5406 5395 5388 5379 5372 5368 5363 5361 5357 5354 5352 5349 5346 5344 5342 5340 5336 5333 5329
5613 5607 5600 5594 5586 5579 5571 5561 5553 5544 5536 5526 5516 5507 5495 5478 5463 5452 5442 5432 5423 5415 5409 5399 5388 5377 5369 5363 5358 5354 5351 5349 5347 5345 5343 5341 5339 5336 5334 5332 5328 5325 5320
5599 5593 5587 5579 5571 5563 5555 5547 5538 5527 5517 5508 5496 5486 5477 5465 5451 5436 5421 5412 5404 5392 5386 5378 5371 5361 5353 5348 5344 5340 5338 5338 5336 5335 5334 5332 5331 5329 5326 5324 5321 5318 5313
5585 5579 5572 5565 5556 5548 5539 5530 5521 5510 5499 5487 5476 5464 5453 5445 5432 5422 5408 5392 5380 5372 5364 5360 5354 5347 5341 5337 5332 5329 5327 5326 5326 5326 5325 5324 5323 5321 5319 5318 5314 5311 5307
5571 5564 5557 5549 5541 5533 5524 5515 5505 5493 5479 5467 5453 5440 5424 5417 5409 5396 5385 5374 5362 5352 5344 5342 5337 5333 5329 5325 5322 5319 5317 5316 5316 5316 5316 5316 5315 5314 5312 5310 5307 5305 5301
5556 5549 5541 5533 5525 5517 5509 5502 5489 5477 5463 5447 5432 5415 5407 5393 5383 5372 5362 5351 5343 5335 5328 5326 5322 5319 5316 5313 5311 5308 5307 5306 5305 5306 5307 5308 5307 5306 5304 5302 5300 5298 5295
5541 5533 5525 5516 5508 5500 5490 5480 5474 5466 5447 5432 5415 5402 5389 5376 5365 5352 5342 5334 5325 5319 5315 5313 5310 5306 5304 5301 5299 5297 5296 5295 5296 5297 5298 5299 5299 5298 5297 5295 5293 5292 5289
5524 5516 5508 5499 5490 5480 5470 5458 5447 5435 5428 5420 5405 5386 5372 5358 5347 5335 5325 5317 5311 5306 5302 5299 5296 5294 5291 5289 5287 5286 5286 5285 5286 5288 5290 5290 5291 5290 5290 5289 5287 5285 5284
5507 5499 5490 5481 5472 5461 5450 5438 5425 5412 5399 5388 5381 5370 5353 5340 5330 5320 5311 5304 5298 5294 5290 5287 5284 5282 5280 5278 5277 5276 5276 5276 5277 5279 5281 5282 5283 5283 5282 5282 5281 5280 5278
5490 5482 5473 5464 5454 5443 5431 5419 5406 5393 5381 5368 5356 5345 5335 5323 5313 5304 5297 5291 5286 5282 5278 5276 5273 5271 5269 5267 5267 5266 5266 5267 5269 5271 5273 5274 5275 5275 5275 5275 5275 5274 5273
5473 5464 5455 5444 5434 5422 5411 5399 5387 5375 5364 5352 5337 5324 5312 5303 5296 5289 5284 5278 5273 5270 5267 5264 5261 5260 5258 5257 5257 5256 5257 5259 5260 5262 5264 5266 5267 5268 5268 5268 5268 5268 5267
5455 5446 5436 5426 5414 5403 5392 5380 5369 5359 5347 5335 5322 5307 5296 5288 5281 5275 5269 5264 5258 5253 5251 5250 5249 5247 5247 5247 5246 5247 5248 5250 5252 5254 5256 5258 5260 5260 5261 5261 5262 5262 5262
5437 5427 5417 5406 5395 5385 5374 5363 5353 5342 5330 5317 5305 5294 5284 5276 5269 5262 5255 5248 5242 5237 5233 5231 5231 5233 5233 5234 5235 5236 5238 5241 5243 5245 5247 5250 5252 5253 5254 5255 5256 5256 5256
5419 5409 5398 5387 5378 5368 5357 5347 5336 5325 5313 5301 5289 5279 5271 5264 5256 5249 5241 5233 5225 5219 5215 5213 5213 5215 5218 5220 5222 5224 5228 5231 5233 5236 5238 5242 5244 5246 5247 5249 5249 5250 5250
5399 5389 5379 5370 5361 5351 5341 5330 5320 5308 5297 5285 5274 5265 5258 5250 5243 5234 5226 5218 5211 5204 5199 5197 5198 5200 5203 5206 5209 5212 5216 5220 5224 5227 5229 5233 5236 5238 5240 5241 5242 5243 5244
5380 5371 5362 5353 5343 5334 5324 5313 5302 5291 5280 5269 5260 5252 5245 5238 5230 5222 5215 5208 5201 5194 5189 5187 5187 5189 5192 5194 5197 5200 5205 5209 5213 5217 5220 5224 5228 5230 5232 5234 5235 5236 5237